Wind_Speed
14 14 14 14 15 15 16 16 16 16 16 16 15 15 15 16 16 16 17 17 18 18 18 18 17 17 17 17 18 18 18 18 18 18 19 19 19 20
16 15 15 15 15 15 16 17 17 17 16 16 16 16 16 16 17 17 18 19 19 18 18 18 18 17 17 17 18 19 20 19 19 20 20 20 21 21
16 15 15 15 16 16 16 17 17 17 17 16 17 17 17 17 18 18 18 19 18 18 18 18 18 18 18 19 19 18 20 21 21 22 22 22 23 23
15 15 15 16 16 16 16 17 17 17 17 17 17 18 18 19 19 19 19 19 18 18 19 19 19 19 19 20 20 21 20 20 21 22 23 24 24 25
16 16 16 16 16 17 17 18 18 17 17 17 18 19 19 20 19 19 19 20 19 19 19 20 20 20 21 21 21 21 22 22 22 23 24 24 24 24
17 17 17 17 18 18 18 18 18 18 17 17 18 19 19 20 20 20 20 19 19 19 19 20 20 21 21 22 21 21 22 23 24 24 25 25 26 26
18 18 18 18 19 19 19 18 18 17 18 18 18 18 18 19 20 20 20 20 20 20 21 21 21 22 22 23 23 23 24 24 24 25 25 26 27 27
20 19 19 19 19 18 18 17 17 17 17 18 18 19 19 20 20 20 20 20 21 21 22 22 22 23 24 24 24 24 24 25 26 26 26 26 27 27
21 22 21 21 20 19 18 18 18 18 19 20 20 20 20 20 21 21 21 21 22 23 23 23 24 24 25 25 25 25 25 26 26 26 27 27 28 28
22 22 22 21 20 19 19 19 19 19 20 21 21 20 20 20 21 22 22 23 23 24 24 24 25 25 25 26 26 26 26 26 27 27 27 28 28 29
22 22 22 22 21 20 20 20 21 21 21 21 21 21 21 21 22 23 24 24 25 25 26 26 26 26 27 27 27 27 28 28 28 28 28 29 29 29
23 23 22 22 22 22 22 22 22 22 22 22 21 22 22 23 24 24 25 26 26 27 27 27 27 28 28 28 29 29 29 30 29 29 30 30 30 30
24 23 23 23 23 23 23 23 23 23 23 23 23 23 24 25 26 26 27 27 28 28 29 29 29 30 30 30 30 30 30 29 30 30 31 31 31 31
25 24 24 24 24 24 25 25 24 24 24 25 25 25 25 26 27 28 28 28 29 30 30 30 30 30 31 32 31 31 30 30 30 30 30 31 31 31
26 26 26 26 26 26 26 26 26 27 27 27 27 27 28 29 29 29 29 30 30 30 30 31 31 31 31 31 31 30 31 30 30 30 30 30 30 30
27 28 28 28 28 28 28 28 28 28 28 29 29 29 30 31 31 31 31 31 32 32 32 31 31 32 32 32 32 31 31 31 31 31 31 31 31 31
28 28 29 29 30 29 29 29 29 30 30 30 31 31 32 32 32 32 32 32 33 33 33 33 33 33 33 33 33 33 33 33 32 32 32 32 32 32
29 29 29 30 30 30 29 30 30 31 32 32 33 33 33 33 33 33 34 34 34 34 34 34 34 34 35 35 35 34 34 34 33 33 33 33 32 32
29 30 30 31 30 30 30 30 31 32 33 33 34 34 34 34 34 34 35 35 35 35 35 35 35 35 35 35 35 36 36 36 36 35 35 34 33 32
29 30 30 30 30 30 30 31 32 32 33 33 34 34 35 35 35 35 35 36 36 36 36 36 35 35 36 35 35 36 37 37 37 37 37 36 36 35
29 29 29 29 29 31 31 32 32 32 33 33 33 34 35 36 36 36 36 36 36 36 35 35 35 36 36 36 36 35 36 36 37 37 37 37 37 36
29 29 29 30 30 31 32 33 33 33 34 34 34 34 35 35 35 35 35 35 35 35 34 34 35 35 35 35 35 35 34 35 36 37 37 37 37 36
29 30 30 31 32 33 33 33 33 34 34 34 35 34 35 35 35 35 35 34 34 34 35 35 35 35 35 35 35 34 34 34 34 35 35 36 36 36
Wind_Direction
304 303 301 299 299 297 296 294 293 292 292 289 283 279 279 281 284 284 283 282 283 284 285 284 282 281 280 280 276 273 272 271 268 269 265 264 266 266
306 302 300 298 298 297 296 295 295 293 290 290 285 282 282 282 282 284 285 284 283 284 283 284 282 277 279 280 278 273 271 270 268 267 267 263 264 265
308 305 302 299 299 299 296 295 294 293 288 285 284 283 283 285 284 283 287 286 282 283 282 281 281 278 277 276 275 275 272 269 267 267 267 267 266 265
309 308 307 303 301 302 297 293 293 291 287 283 282 282 281 283 284 283 284 285 283 281 280 279 279 279 279 277 275 275 275 274 272 271 270 270 270 267
308 307 306 304 303 303 302 298 294 291 287 284 283 283 284 282 283 283 283 284 285 283 283 282 280 278 278 277 278 278 276 275 274 272 271 270 270 270
307 305 304 303 303 302 302 302 297 292 288 287 287 286 285 283 283 285 283 285 285 284 283 284 283 280 279 278 277 277 276 274 273 272 271 270 269 268
303 302 302 303 303 303 301 301 297 292 290 288 289 289 287 286 286 287 285 284 285 285 285 284 284 282 281 280 276 275 274 273 272 272 271 270 269 269
300 300 303 304 304 303 301 302 301 294 290 290 292 291 290 288 287 288 287 285 284 284 285 285 284 283 282 281 279 278 277 275 273 271 270 270 269 269
301 303 304 304 303 303 303 301 300 297 292 290 290 289 286 286 287 287 286 285 284 284 284 285 285 285 285 283 283 281 278 276 275 274 272 271 270 269
299 300 301 301 302 301 301 301 300 299 296 293 290 287 286 288 289 288 287 286 285 283 283 284 284 284 285 283 284 284 282 279 277 275 274 273 272 270
296 298 300 300 299 300 301 302 300 299 298 298 294 289 289 290 291 290 288 286 286 286 285 284 284 284 284 284 284 283 281 279 278 276 275 274 274 272
294 295 297 299 297 297 299 300 298 297 297 296 295 293 291 291 291 290 289 288 287 286 286 285 284 285 285 285 284 282 281 279 277 276 275 275 275 273
290 292 293 295 296 294 295 296 296 296 297 297 296 294 293 292 292 292 291 289 287 286 286 285 285 285 284 285 284 284 282 279 278 278 276 274 273 271
288 290 291 292 293 293 293 295 295 296 295 294 294 293 293 292 292 292 292 291 290 288 286 286 286 285 284 284 283 282 281 281 281 280 279 276 273 271
286 288 289 291 292 292 293 293 293 294 295 293 291 291 291 291 291 291 291 290 290 289 288 286 285 284 284 283 282 281 281 282 283 281 280 277 275 272
286 286 287 288 291 292 291 293 293 293 293 292 291 291 291 290 290 290 290 290 290 289 288 287 286 285 285 284 283 283 284 284 284 282 280 278 276 275
286 287 287 288 290 291 291 292 292 291 291 292 292 291 290 290 289 289 289 289 289 288 289 289 288 286 286 286 285 285 284 283 283 282 279 278 277 276
285 287 288 289 289 290 290 291 291 290 291 291 291 290 290 289 289 289 289 289 290 289 289 288 287 286 285 285 284 284 284 284 283 281 280 279 277 275
287 288 288 288 288 289 289 290 291 291 291 292 291 290 290 290 290 290 289 289 289 289 289 288 287 286 285 285 285 284 283 282 281 279 279 279 278 275
287 288 287 287 287 289 290 290 292 292 292 292 292 291 290 290 290 290 290 289 289 289 290 289 288 288 287 286 285 284 283 282 280 279 279 278 277 274
287 288 288 288 288 290 291 292 293 293 293 292 293 293 293 292 291 291 291 291 290 289 290 289 289 289 287 287 286 286 284 283 282 281 279 276 275 273
288 288 288 289 291 292 292 293 294 294 295 295 295 295 296 295 294 294 293 292 291 290 290 290 290 290 290 290 289 287 285 284 284 283 281 277 274 273
287 289 290 291 292 292 293 295 294 295 296 297 297 296 296 295 295 294 293 292 292 291 290 290 290 291 291 291 290 289 287 286 285 284 282 280 277 275
Height
5869 5868 5866 5864 5863 5861 5859 5858 5857 5855 5854 5853 5852 5851 5850 5849 5848 5846 5845 5844 5842 5841 5840 5838 5837 5835 5834 5833 5833 5832 5831 5831 5831 5830 5830 5830 5829 5829
5864 5863 5861 5860 5858 5856 5855 5853 5852 5851 5849 5848 5846 5845 5844 5843 5842 5841 5839 5838 5836 5835 5834 5833 5831 5830 5829 5828 5827 5827 5826 5826 5825 5825 5825 5824 5824 5824
5860 5858 5856 5855 5853 5851 5850 5848 5846 5845 5844 5843 5842 5840 5839 5838 5836 5835 5833 5832 5831 5830 5828 5827 5826 5825 5823 5823 5822 5821 5820 5820 5820 5820 5819 5819 5818 5818
5855 5853 5852 5850 5848 5846 5844 5842 5840 5839 5838 5837 5836 5835 5834 5832 5831 5829 5828 5826 5825 5824 5822 5821 5820 5819 5818 5817 5816 5815 5815 5814 5814 5813 5813 5812 5812 5811
5851 5849 5847 5845 5843 5841 5839 5837 5835 5833 5832 5830 5830 5829 5827 5826 5825 5823 5822 5821 5819 5818 5816 5815 5814 5813 5812 5811 5810 5809 5809 5808 5807 5807 5806 5805 5805 5805
5847 5845 5843 5841 5839 5837 5834 5832 5830 5828 5826 5825 5824 5823 5821 5820 5819 5817 5816 5814 5813 5812 5810 5809 5808 5807 5806 5805 5804 5803 5802 5801 5800 5800 5799 5799 5798 5798
5843 5841 5838 5836 5834 5831 5829 5827 5825 5823 5821 5820 5818 5817 5816 5814 5813 5811 5810 5809 5807 5806 5805 5803 5802 5801 5799 5798 5797 5796 5795 5794 5793 5792 5792 5791 5791 5790
5838 5836 5833 5831 5829 5826 5823 5821 5819 5818 5816 5814 5813 5812 5810 5808 5807 5805 5804 5803 5802 5801 5799 5798 5796 5794 5793 5791 5790 5788 5787 5786 5786 5785 5784 5783 5783 5782
5833 5831 5828 5826 5824 5821 5818 5816 5814 5812 5810 5809 5807 5805 5804 5802 5801 5799 5798 5797 5795 5794 5792 5791 5789 5787 5785 5783 5782 5781 5779 5778 5777 5776 5775 5775 5774 5774
5828 5825 5823 5821 5818 5815 5813 5811 5808 5806 5804 5802 5800 5798 5797 5796 5794 5793 5791 5790 5789 5787 5785 5784 5782 5780 5778 5776 5775 5773 5772 5770 5769 5768 5767 5766 5765 5765
5822 5819 5817 5815 5812 5810 5808 5805 5803 5801 5798 5796 5793 5791 5790 5789 5787 5786 5784 5783 5781 5780 5778 5776 5775 5773 5771 5769 5767 5765 5763 5762 5761 5759 5758 5757 5756 5756
5815 5813 5811 5809 5807 5804 5802 5799 5797 5795 5792 5789 5787 5786 5784 5782 5780 5779 5777 5775 5773 5772 5769 5768 5766 5765 5763 5761 5759 5757 5755 5753 5752 5750 5749 5748 5747 5746
5808 5806 5804 5802 5800 5798 5795 5793 5791 5788 5786 5784 5782 5779 5777 5775 5773 5771 5769 5767 5765 5763 5761 5759 5757 5755 5754 5752 5750 5748 5746 5744 5742 5741 5739 5738 5737 5736
5801 5799 5797 5795 5793 5791 5788 5786 5784 5782 5780 5777 5775 5772 5770 5768 5765 5763 5761 5758 5756 5754 5752 5749 5748 5746 5744 5742 5741 5739 5736 5735 5733 5731 5729 5728 5727 5726
5793 5792 5790 5788 5786 5783 5781 5779 5776 5774 5772 5770 5767 5765 5762 5760 5757 5755 5752 5750 5747 5745 5742 5740 5738 5736 5734 5733 5731 5729 5727 5725 5723 5721 5719 5718 5717 5716
5785 5783 5782 5779 5777 5775 5773 5771 5768 5766 5764 5761 5759 5756 5754 5751 5748 5746 5744 5741 5738 5736 5733 5730 5728 5726 5724 5722 5721 5719 5717 5715 5712 5710 5709 5707 5706 5705
5776 5774 5772 5770 5769 5767 5765 5762 5760 5757 5755 5753 5750 5747 5745 5742 5739 5737 5734 5732 5729 5726 5724 5721 5718 5716 5714 5712 5710 5708 5706 5704 5702 5700 5698 5697 5696 5695
5767 5765 5763 5761 5759 5758 5755 5753 5751 5748 5746 5743 5740 5738 5735 5732 5729 5727 5724 5721 5718 5716 5713 5710 5708 5706 5703 5701 5699 5697 5695 5693 5691 5689 5687 5686 5686 5684
5758 5756 5754 5752 5750 5748 5746 5744 5741 5739 5736 5733 5730 5727 5725 5722 5719 5716 5713 5710 5707 5705 5702 5699 5696 5694 5692 5691 5688 5685 5683 5681 5679 5677 5676 5675 5674 5673
5748 5747 5745 5743 5741 5739 5737 5735 5732 5729 5727 5724 5721 5717 5714 5711 5708 5705 5702 5699 5696 5693 5691 5688 5685 5682 5680 5678 5677 5674 5670 5668 5667 5665 5664 5662 5661 5661
5740 5738 5736 5734 5732 5730 5728 5725 5722 5720 5717 5714 5710 5707 5704 5700 5697 5694 5691 5687 5684 5682 5679 5676 5673 5670 5668 5665 5664 5662 5659 5655 5653 5652 5651 5650 5649 5648
5731 5729 5727 5725 5723 5720 5718 5715 5713 5710 5706 5703 5700 5696 5693 5690 5686 5683 5680 5676 5673 5670 5667 5665 5662 5659 5655 5653 5651 5649 5646 5644 5641 5638 5636 5636 5635 5635
5722 5720 5718 5715 5713 5711 5708 5705 5702 5699 5696 5692 5689 5686 5682 5679 5676 5672 5668 5665 5662 5659 5656 5653 5650 5647 5644 5641 5639 5636 5634 5632 5629 5627 5625 5622 5621 5621